Location: Le Gr�zie
(43.6000°N, 13.5000°E)
Time: 19:51:35
(UTC+00:00)

RESURS DK-1 - Pass Details

Date: 09 April 2020
Orbit: 557 x 561 km, 69.9° (Epoch: 02 June)

Event Time Altitude Azimuth Distance (km) Brightness Sun altitude
Rises 20:45:43 0° 331° (NNW) 2,758 7.0 -29.2°
Reaches altitude 10° 20:47:56 10° 329° (NNW) 1,857 5.9 -29.5°
Enters shadow 20:50:16 32° 321° (NW) 974 4.0 -29.8°
